Theta_e
345 344 343 341 338 335 333 333 334 336 338 339 340 340 339 338 337 335 333 333 330 324 317 314 315 316 317 315 314 313 313 313 312 312 311 311 310 310 310 309 309 309 309 310 310 312 313 315 323 329 331 329 329 329 329 329 330 331 333 333 333 334 334 335 335 335 335 336 336 336 337 336 336 336 337 336 335 335 335 335 334 334 334 333 333
345 343 341 339 336 334 332 333 334 336 338 340 341 340 339 338 338 336 334 333 332 327 320 315 315 315 316 316 315 313 313 313 312 312 311 311 311 310 310 310 309 309 309 310 310 312 313 315 320 327 330 329 329 329 330 331 331 332 332 332 333 335 335 335 335 336 336 336 336 336 337 336 337 337 337 337 336 335 335 335 334 333 333 333 332
345 342 340 338 335 333 331 332 334 337 339 341 341 340 340 339 338 336 335 334 333 331 326 318 315 314 315 316 315 314 313 313 312 311 312 311 311 310 310 310 309 309 309 309 310 311 312 315 319 325 328 329 329 329 331 332 332 332 331 332 335 336 336 336 336 336 336 337 337 337 337 337 337 337 336 337 337 336 335 334 333 332 332 332 332
345 343 340 337 334 333 331 332 334 337 339 341 341 340 340 339 338 337 336 334 333 333 330 324 318 315 314 316 315 315 314 313 313 312 312 312 311 311 310 310 309 309 309 309 310 311 311 314 318 324 327 327 328 329 331 332 331 330 330 332 334 335 336 336 336 336 336 337 337 337 337 337 337 337 337 337 336 335 333 332 331 330 330 330 329
346 343 340 336 333 332 331 331 334 337 339 341 341 340 340 339 338 337 336 335 334 333 333 330 324 318 314 315 315 314 314 314 313 312 312 312 312 311 310 310 310 309 309 310 310 310 311 313 317 323 326 327 328 329 330 330 329 329 330 332 332 333 334 334 334 335 336 336 336 336 336 337 337 337 337 336 334 332 330 329 328 327 326 325 323
346 343 340 336 332 331 331 331 333 336 339 341 341 340 340 340 338 337 336 335 334 334 334 332 330 324 317 314 315 315 314 315 314 313 312 312 312 311 311 310 310 310 310 310 310 310 310 313 316 321 326 327 328 329 329 329 329 330 331 331 332 332 332 333 334 334 335 336 336 336 336 336 336 335 335 333 331 328 326 324 322 321 322 322 319
347 343 339 336 332 331 331 330 332 335 337 340 340 341 340 340 339 338 336 335 335 334 334 333 333 330 324 318 315 315 315 315 314 313 312 312 312 312 311 310 310 310 310 310 311 310 310 311 314 318 323 327 328 328 328 329 331 331 332 332 332 332 333 334 335 335 335 335 335 335 335 336 334 333 331 329 327 325 323 321 317 316 317 317 315
346 343 339 337 332 330 330 329 331 333 336 339 340 341 340 340 339 338 337 335 335 335 335 334 333 333 330 324 319 317 315 315 315 314 313 312 312 312 311 311 311 310 311 315 317 314 311 311 312 316 321 325 327 327 328 330 331 331 332 332 332 332 332 333 334 334 334 335 335 333 332 334 333 330 329 324 320 322 320 317 315 313 313 313 313
345 341 338 336 331 330 329 329 329 332 336 338 340 340 340 340 340 339 337 335 335 335 335 334 334 333 331 329 326 322 318 316 315 315 313 312 312 313 312 311 311 312 313 316 319 316 313 311 312 314 317 323 325 326 328 330 331 332 332 331 331 331 331 332 333 333 334 335 334 329 327 332 333 327 326 322 316 316 314 312 312 311 310 310 312
343 339 337 334 331 329 328 328 328 331 335 338 339 340 340 340 340 339 338 336 334 335 335 334 334 333 331 330 329 326 322 318 315 315 315 312 313 314 313 312 312 314 316 317 318 317 313 310 310 313 315 320 324 325 327 329 331 331 330 329 329 330 331 332 333 333 334 334 332 328 323 327 327 321 322 321 315 313 311 309 309 308 309 311 313
341 339 336 332 330 329 327 326 328 332 336 338 339 339 340 340 340 339 338 336 334 335 335 334 334 333 330 329 329 327 324 321 316 315 316 314 314 314 315 314 315 319 321 320 320 319 314 309 309 312 313 317 321 323 325 328 329 327 327 328 330 331 330 331 333 333 333 333 331 328 325 321 318 315 317 317 313 311 309 308 309 308 310 314 315
339 337 334 331 329 327 326 326 329 332 335 337 338 338 339 339 339 339 339 336 334 336 335 335 335 333 329 328 330 328 326 326 320 317 317 316 315 315 317 318 319 322 322 321 321 319 313 308 309 311 312 315 319 321 323 327 327 327 328 330 332 331 330 330 331 330 330 331 331 328 326 319 313 312 313 313 311 309 308 309 309 309 312 312 312
340 337 333 330 328 326 325 327 330 332 333 336 336 336 336 337 338 339 339 336 336 336 336 335 335 333 329 329 330 329 329 330 324 320 319 317 316 318 321 323 324 323 322 321 319 317 313 309 308 309 311 314 317 319 324 329 330 331 332 333 333 332 332 331 331 330 328 327 328 327 322 316 311 311 311 310 309 309 309 309 309 311 312 311 312
341 339 332 328 328 328 327 327 330 331 331 332 330 330 331 334 336 338 338 337 336 337 336 335 336 334 330 330 331 331 332 331 328 325 321 318 321 323 324 327 329 326 323 321 318 317 315 310 309 309 310 313 315 321 328 332 332 333 333 332 331 331 331 331 332 331 326 321 321 320 316 312 310 311 311 311 310 310 310 309 309 311 313 314 313
342 341 333 326 327 330 329 327 329 330 328 326 324 323 324 328 332 335 336 336 336 337 336 336 336 333 329 330 331 333 333 332 331 327 320 321 327 328 328 329 329 328 323 320 319 318 316 313 311 309 311 313 317 326 332 332 332 332 332 332 331 330 331 331 332 329 322 316 314 313 312 310 309 310 311 310 309 310 309 309 309 310 312 314 313
343 341 332 325 327 330 331 328 329 328 325 324 323 323 322 323 325 330 334 335 336 336 336 336 333 330 329 331 333 335 332 331 331 325 320 326 332 333 333 331 328 327 324 320 320 319 318 316 313 310 312 316 322 329 332 332 332 332 332 333 332 331 331 330 330 325 316 311 310 310 310 310 309 309 309 309 309 309 309 309 309 309 310 310 310
343 338 327 325 327 331 332 330 329 326 325 326 325 324 323 322 323 327 332 334 335 335 336 334 330 329 332 335 336 335 330 328 328 324 323 330 334 334 335 332 326 326 324 321 321 320 319 318 315 313 312 317 325 330 332 332 332 332 333 334 333 332 331 330 330 325 316 311 309 309 310 309 310 309 309 309 309 309 309 310 309 309 309 309 309
345 338 326 325 327 330 332 330 329 327 327 329 327 325 323 322 322 325 330 332 333 334 332 330 329 331 335 337 337 336 331 328 326 323 325 332 335 334 335 332 326 325 324 323 323 322 322 321 318 316 313 316 324 330 331 332 332 333 333 334 334 333 332 332 331 327 320 314 309 309 309 309 309 309 309 310 311 312 312 311 310 309 308 308 308
346 340 327 325 327 330 333 331 330 329 329 330 328 327 326 323 323 325 328 330 330 330 327 328 332 335 337 338 336 336 333 329 327 324 325 330 334 334 334 331 327 325 325 325 325 325 324 324 322 321 316 315 321 327 330 331 332 332 332 333 333 333 333 332 331 329 322 315 309 308 309 309 309 309 310 311 311 312 312 311 310 309 308 308 308
345 342 330 326 328 330 332 331 330 330 331 332 331 331 329 327 326 326 326 326 325 326 326 329 335 337 337 336 335 335 334 331 329 327 325 326 329 332 332 330 329 326 326 326 327 326 326 326 325 325 321 317 317 323 329 331 331 331 332 333 333 333 332 331 331 328 320 312 308 308 308 308 309 309 310 309 310 310 309 310 309 308 308 308 308
342 340 332 328 328 328 330 330 330 331 332 332 332 332 330 327 325 325 325 323 322 325 327 333 337 338 337 334 333 334 334 332 330 328 327 324 323 328 329 329 330 326 325 327 328 327 327 327 327 327 325 320 317 321 327 330 331 332 332 332 331 330 330 331 330 326 319 312 309 308 307 308 309 309 309 308 309 309 308 308 308 308 308 308 308
341 337 331 328 327 328 329 330 331 331 332 331 331 332 330 326 322 322 322 320 322 326 330 334 336 338 336 333 333 333 333 333 331 329 329 326 322 325 328 329 329 325 324 327 328 328 327 327 327 327 327 324 320 321 325 327 329 330 332 333 331 329 330 330 328 325 322 315 309 309 308 308 308 308 309 308 308 308 308 308 308 308 308 308 308
340 337 333 330 330 330 329 330 331 331 331 331 331 332 331 326 321 319 318 318 323 328 331 333 335 336 334 332 332 332 333 332 330 330 330 328 325 325 328 327 327 324 323 326 328 328 327 326 326 326 327 327 325 324 325 326 328 330 332 333 332 331 331 330 328 325 323 317 312 310 309 308 308 307 307 307 307 307 308 307 308 308 308 308 308
339 338 335 334 335 332 329 330 331 331 331 332 332 332 332 329 323 319 319 320 324 328 329 332 333 333 332 331 332 332 333 332 330 331 330 329 328 328 329 327 326 324 321 324 327 328 327 326 325 326 326 327 328 327 326 327 329 331 332 332 331 331 331 329 328 326 323 318 314 312 311 309 308 307 307 306 306 306 307 307 307 307 307 307 307
338 338 337 335 336 334 332 332 332 332 331 332 333 332 333 330 324 321 321 322 325 328 329 331 332 331 331 330 331 332 333 331 331 333 331 329 329 329 330 328 326 324 320 322 327 327 327 326 326 327 327 329 330 329 329 328 329 331 330 332 332 332 332 330 329 327 323 320 318 316 314 312 310 308 307 307 306 306 306 305 306 306 306 306 306
338 337 338 336 335 333 333 333 333 333 333 333 334 334 333 331 327 322 322 324 328 330 331 332 332 331 330 330 331 332 332 331 330 333 332 330 329 329 329 325 322 323 319 319 325 326 326 326 326 327 327 330 331 331 332 330 331 332 331 333 333 332 332 332 331 329 325 321 320 320 317 315 312 310 309 308 307 306 306 305 305 305 305 305 305
339 337 338 337 336 335 334 335 334 334 334 334 334 334 334 333 331 324 323 328 330 331 331 331 331 331 331 331 332 331 331 330 330 332 331 330 330 328 324 320 318 319 318 318 322 325 326 327 326 328 328 327 329 331 332 332 331 331 331 333 333 332 332 332 332 330 325 322 321 321 320 319 316 313 310 308 308 307 306 305 305 305 304 304 304
340 338 338 338 337 337 336 336 335 335 335 335 335 335 334 333 333 327 326 331 332 332 332 332 331 331 331 331 331 330 329 329 329 330 331 331 330 325 320 320 320 318 318 319 321 325 325 325 325 326 325 326 330 331 331 332 331 329 330 333 333 332 332 332 331 330 326 323 322 322 321 321 320 318 314 311 308 307 307 306 305 305 304 304 304
340 338 338 339 339 338 337 336 336 336 335 336 335 335 334 333 333 330 329 331 332 333 332 333 332 331 331 331 330 328 329 329 329 330 332 331 329 327 325 323 324 324 322 322 326 329 327 325 324 322 323 326 331 332 332 331 330 329 328 331 332 331 331 331 330 330 328 324 323 322 321 320 320 319 317 314 310 308 307 307 305 305 304 304 304
340 338 338 340 339 338 338 337 337 336 336 336 335 335 334 334 333 331 330 331 332 332 332 332 332 332 332 330 328 327 329 330 328 330 331 329 329 331 330 328 328 328 327 326 328 330 329 328 327 326 328 329 331 332 332 329 328 329 328 328 331 331 331 329 329 330 328 325 324 324 322 320 319 318 318 315 311 309 308 307 306 305 305 305 305
341 339 338 340 340 338 339 338 337 337 337 336 335 335 335 333 333 332 331 331 332 332 332 332 332 332 332 331 329 328 329 329 329 331 330 330 332 332 332 332 331 330 330 328 328 330 330 329 329 330 332 332 331 332 332 329 328 329 329 329 330 330 328 327 329 330 326 325 326 326 326 323 320 317 317 316 312 310 308 307 306 306 306 306 306
342 341 339 338 339 339 339 339 338 338 336 336 336 336 335 334 333 333 332 332 332 332 332 332 332 332 332 331 329 328 329 329 330 330 330 331 332 332 333 333 333 332 329 329 329 329 329 330 331 332 332 332 331 331 331 330 329 329 330 330 329 328 326 325 329 329 326 324 324 326 328 327 323 317 316 316 312 309 308 308 308 308 309 309 310
342 341 339 337 338 339 339 338 338 337 336 336 336 336 336 335 334 333 333 333 331 332 332 332 331 331 331 331 329 328 329 329 329 330 331 332 332 332 333 334 333 331 329 331 331 329 330 332 331 331 331 331 331 331 331 330 329 331 331 330 329 327 326 326 327 328 326 324 324 325 328 329 326 318 313 314 312 310 311 311 312 313 314 315 317
343 341 339 337 337 339 339 339 338 337 337 336 336 336 335 335 335 333 333 332 331 332 332 332 332 331 331 331 330 330 330 330 329 329 331 333 332 332 333 333 332 330 329 331 332 330 331 333 332 332 332 332 331 331 330 329 329 331 331 330 329 327 326 327 328 328 327 325 325 326 327 329 328 320 312 311 311 311 314 315 317 318 319 320 322
343 342 340 337 336 338 339 338 338 337 337 336 336 336 335 336 335 333 332 332 332 332 332 331 332 332 332 331 331 331 330 330 327 327 330 332 332 331 332 331 330 330 329 329 329 330 331 332 332 332 333 332 332 331 330 330 330 330 330 330 330 328 327 328 328 328 328 327 326 326 327 328 328 324 315 310 310 312 316 319 321 321 321 322 323
344 343 340 338 336 337 338 338 338 338 337 336 336 336 336 335 334 333 332 332 332 332 331 331 330 331 330 330 330 331 330 329 326 326 329 331 332 332 332 332 331 331 329 328 328 330 331 331 330 331 332 332 331 332 331 331 330 330 330 330 330 329 328 329 329 329 328 327 327 326 326 326 327 327 320 312 310 313 317 321 322 322 323 323 325
345 343 341 338 336 336 337 338 338 338 337 337 336 336 336 335 334 333 332 332 332 332 330 329 329 329 329 329 330 330 329 329 328 326 328 329 330 331 331 332 332 331 329 328 329 330 332 331 331 331 331 331 331 332 331 330 330 330 331 331 330 329 328 328 329 329 329 328 328 326 325 325 328 328 323 316 314 317 320 322 323 324 325 326 326
345 343 341 338 337 336 336 338 338 338 337 337 337 336 335 335 334 333 332 332 331 331 331 329 329 328 329 331 330 329 328 329 328 325 327 328 329 330 330 332 332 329 328 328 329 331 332 332 332 332 331 331 331 331 331 331 331 330 330 330 330 328 328 328 328 329 329 328 328 327 326 327 328 328 324 320 318 319 321 323 324 325 326 326 326
345 343 341 338 337 336 335 337 338 337 337 337 337 335 334 334 334 334 333 332 331 331 332 330 329 328 329 330 330 328 326 327 327 326 327 328 330 330 329 332 331 328 328 329 331 332 332 332 333 332 332 332 331 331 331 331 332 331 329 328 328 328 327 327 327 328 328 328 328 327 326 327 328 328 326 322 320 319 322 324 325 326 326 326 326
345 343 340 338 337 336 336 337 337 337 337 337 336 333 334 335 334 335 334 332 332 332 333 331 329 328 327 327 328 327 326 327 326 327 327 327 330 329 328 332 330 328 329 329 330 332 332 332 331 331 332 332 332 331 331 331 331 330 329 327 327 327 327 327 327 327 327 328 328 326 325 327 328 328 327 325 321 321 323 325 325 326 326 325 324
344 342 340 337 337 337 337 338 337 338 337 336 335 332 334 335 333 334 334 332 333 333 333 332 330 328 328 327 326 326 327 328 328 327 327 328 330 328 329 332 330 329 329 327 329 332 332 332 331 330 330 331 331 331 331 331 331 330 329 328 327 328 328 328 327 327 327 328 327 326 325 326 327 327 326 325 323 323 324 325 325 325 324 323 323
342 341 338 335 335 336 336 337 337 337 337 336 335 334 335 335 334 334 334 332 333 332 332 332 331 330 330 329 328 328 329 329 329 328 328 329 330 330 331 332 328 328 329 327 329 331 332 332 330 329 329 330 331 331 331 331 330 329 329 328 328 329 328 328 328 327 327 327 327 327 326 325 325 325 325 324 324 324 325 325 326 326 325 324 324
341 339 337 333 333 335 336 336 337 336 336 335 335 335 335 334 334 335 334 333 332 332 332 332 332 332 332 332 330 329 329 330 330 329 328 329 331 332 332 331 328 328 328 328 329 330 331 331 329 329 329 330 331 331 331 330 330 329 328 328 328 328 328 328 328 327 327 327 327 327 326 325 325 324 324 324 324 324 325 326 326 326 325 325 323
341 339 335 333 333 335 336 336 336 336 336 335 334 335 334 332 333 333 334 333 332 333 333 332 332 331 332 333 331 329 329 330 330 329 327 326 329 331 331 330 329 328 329 328 329 330 330 329 328 328 329 330 331 331 331 330 329 329 329 329 328 328 328 328 327 327 327 326 326 326 326 325 325 324 325 325 325 325 326 326 326 325 325 323 321
340 339 334 332 331 332 334 335 336 336 336 334 334 335 333 332 333 332 333 334 333 333 333 333 332 331 332 332 331 329 329 330 330 331 328 326 329 330 329 330 329 328 329 329 328 329 329 329 328 328 329 330 330 330 331 331 330 329 328 328 329 328 328 328 327 327 327 326 326 326 326 325 325 325 325 325 325 326 326 325 325 325 325 323 320
339 339 335 331 328 327 330 333 335 336 335 334 334 334 332 332 333 332 333 334 332 332 332 332 332 331 331 332 330 329 330 330 330 331 330 329 330 329 329 329 329 329 330 329 328 328 329 329 328 329 329 329 330 330 330 331 330 329 328 328 328 329 328 327 326 327 327 326 326 326 325 325 325 325 325 325 325 326 325 325 325 325 325 324 322
339 338 335 333 330 329 329 332 335 335 334 334 333 333 332 332 333 332 333 334 332 331 331 331 331 330 330 332 331 330 330 330 330 330 330 330 330 329 329 329 329 329 329 329 329 329 330 330 329 330 330 329 329 330 330 330 329 328 329 329 327 327 328 326 326 326 327 327 326 326 325 325 326 326 326 326 326 325 325 325 325 325 325 324 325
339 335 333 333 332 331 331 333 335 335 334 333 332 333 332 331 331 330 331 333 332 330 330 331 332 331 330 331 331 330 330 329 330 331 330 331 331 329 328 328 329 329 328 329 330 330 331 331 330 330 330 328 329 330 330 329 328 327 329 329 328 327 327 327 327 326 326 327 327 326 326 326 326 326 326 326 326 325 324 324 324 324 324 324 325
337 334 332 333 333 333 332 332 334 334 334 333 332 333 332 329 328 327 329 333 332 330 331 331 331 331 332 331 330 331 330 329 331 332 331 331 330 328 327 328 329 329 328 329 330 330 331 332 331 330 330 329 329 330 330 329 328 327 328 329 328 327 328 328 328 326 326 326 327 326 326 326 326 326 326 325 325 324 323 323 323 323 323 322 322
335 332 333 335 335 334 333 331 332 333 333 333 333 333 330 326 325 327 330 332 332 331 331 331 332 332 332 331 331 331 330 330 332 332 332 331 330 329 329 330 330 330 329 330 331 331 331 332 330 329 330 330 330 330 330 329 329 328 327 328 327 327 328 328 328 328 326 326 326 326 326 326 326 326 325 324 324 324 323 323 322 322 321 320 318
334 334 337 337 336 335 333 331 330 330 331 333 333 332 329 326 325 326 329 331 332 330 330 331 332 332 332 331 331 331 331 331 332 332 332 330 329 329 330 330 330 330 330 330 330 330 331 331 331 329 330 330 329 329 329 329 329 328 327 328 328 327 327 327 327 327 327 327 326 326 326 326 326 325 324 324 324 323 323 323 322 322 320 319 319
Wind_Speed
20 21 21 22 22 23 24 25 25 25 24 23 23 22 22 21 20 19 19 18 17 16 15 17 19 19 18 18 18 18 17 17 17 18 17 17 17 16 16 15 15 15 15 15 16 16 15 16 17 18 18 19 20 19 20 19 18 19 20 21 21 22 20 20 21 20 20 20 19 18 18 18 18 17 18 17 17 16 16 15 15 16 17 17 16
23 22 22 22 22 23 24 25 25 25 24 23 23 22 21 20 20 19 18 18 17 17 15 16 18 18 18 17 17 17 17 16 17 17 17 16 16 16 16 15 14 15 15 15 16 17 16 17 19 19 19 20 22 21 21 21 21 21 22 23 22 22 21 21 21 20 19 19 19 18 18 18 18 17 17 17 17 16 16 16 15 16 16 16 16
23 22 22 23 21 22 23 25 25 25 24 23 23 21 21 20 19 18 18 17 17 17 16 16 16 16 16 16 17 16 16 16 16 16 16 16 16 16 16 14 14 14 14 15 16 17 17 18 20 20 20 20 22 23 23 23 22 23 23 23 23 23 22 21 20 19 19 19 19 19 19 18 18 17 16 17 16 16 15 15 14 15 14 14 15
20 22 23 23 22 22 23 25 25 25 24 24 22 21 20 20 19 18 17 17 16 16 16 16 15 15 16 16 16 16 15 15 15 15 16 16 16 15 15 14 14 14 14 15 16 18 18 19 20 21 22 22 23 24 25 23 23 23 24 24 23 24 23 23 22 20 18 17 17 18 19 19 18 17 16 16 15 14 13 13 12 12 12 11 12
17 22 23 24 23 22 23 24 25 24 24 23 22 21 20 19 19 18 17 16 16 16 16 16 14 14 15 15 15 15 14 14 14 14 15 15 15 15 15 14 14 14 14 15 16 18 18 19 19 21 22 24 25 25 25 25 25 25 25 25 24 24 23 23 22 20 17 15 14 15 17 18 17 16 14 13 13 12 11 10 9 9 9 8 8
16 22 23 24 24 22 23 23 24 24 23 23 22 21 20 19 18 18 17 16 16 15 16 15 14 14 14 14 14 14 13 13 13 13 15 15 15 15 14 14 14 14 14 15 16 17 18 19 19 20 22 24 26 26 26 27 27 26 25 25 24 23 22 21 20 18 16 14 12 12 14 16 16 14 12 10 10 9 9 7 6 6 5 5 5
16 21 23 24 24 23 22 23 23 23 23 23 22 20 19 19 18 18 17 16 15 15 15 15 14 13 13 13 13 13 12 12 11 12 14 15 15 15 15 14 14 14 15 15 16 16 17 17 18 20 21 23 25 27 28 28 27 26 24 23 22 21 20 18 17 16 14 13 11 9 9 11 13 13 10 8 9 8 8 7 7 7 5 4 3
17 21 24 24 24 23 22 22 22 22 22 22 21 20 19 18 18 17 17 16 15 15 15 14 14 13 13 12 12 12 11 11 10 10 12 15 15 16 15 15 14 12 13 14 15 15 15 16 17 19 20 22 25 27 28 28 27 25 23 21 20 19 17 16 15 14 12 11 9 7 6 5 8 11 9 8 9 8 8 7 7 7 6 5 4
18 23 25 24 24 23 22 22 22 22 21 21 20 19 18 18 17 17 16 16 15 15 14 14 13 13 13 12 11 10 10 10 9 9 10 13 16 16 15 14 13 11 12 14 14 14 14 15 16 18 20 22 24 27 28 27 26 24 23 21 20 19 17 13 11 11 11 8 4 7 8 5 4 7 8 9 9 8 8 7 7 7 7 8 8
18 25 25 24 24 23 22 21 21 21 20 20 19 18 18 17 17 16 16 15 15 14 13 13 13 13 12 12 11 10 10 9 9 8 8 11 15 16 15 14 13 11 12 13 14 13 13 15 16 18 19 21 24 27 26 26 25 24 23 21 20 19 16 12 10 11 10 8 2 4 7 6 3 6 10 10 9 9 9 10 10 11 12 12 13
20 26 24 23 23 22 22 21 21 20 19 19 18 18 17 17 16 16 16 15 14 14 13 13 12 12 12 12 12 10 10 9 9 9 8 9 13 15 15 14 13 12 12 13 13 13 13 15 16 17 19 21 24 26 25 25 25 24 23 21 20 18 16 13 11 10 9 7 2 1 3 6 4 7 9 9 9 10 11 13 13 14 15 15 16
21 25 24 23 23 22 22 21 20 19 19 18 18 17 16 16 15 15 15 15 15 14 14 13 12 12 13 12 12 11 10 9 9 9 8 9 12 14 15 14 13 12 12 12 13 13 14 15 16 17 18 21 23 25 25 26 26 24 22 20 19 17 15 12 10 9 6 5 3 2 3 5 4 8 9 10 11 12 13 14 15 16 16 16 17
19 23 23 23 23 23 22 21 21 19 18 17 16 16 15 15 15 15 15 15 15 13 13 13 13 13 13 13 12 11 10 9 10 9 9 10 12 13 14 14 13 12 11 11 12 14 14 14 15 16 18 21 23 25 27 27 25 23 22 20 18 16 14 10 8 5 3 3 5 4 4 1 7 11 12 13 13 14 15 15 16 16 16 17 17
17 20 22 24 24 23 22 22 21 20 19 17 16 16 15 15 15 15 15 15 14 13 13 13 13 13 13 13 12 11 11 10 11 10 10 11 13 12 12 12 12 12 11 12 13 14 14 14 15 15 17 20 23 26 28 27 24 23 21 20 17 14 11 8 6 1 2 1 3 3 2 5 11 13 14 14 14 15 15 16 16 16 17 16 16
13 18 22 24 25 23 22 22 21 20 19 19 18 17 16 16 16 16 16 15 15 14 13 13 13 13 13 12 11 11 11 12 11 10 11 12 13 12 12 10 10 11 11 13 14 14 14 14 15 16 18 21 24 27 27 25 23 22 21 19 15 12 8 6 4 2 2 4 4 5 8 10 12 14 14 14 15 15 15 15 15 16 16 16 17
11 17 25 25 25 24 22 22 21 21 20 20 19 17 17 16 16 16 16 15 15 14 13 12 13 13 12 11 11 12 12 12 11 11 13 14 13 12 11 9 9 10 12 14 14 14 14 14 15 16 18 21 25 27 26 23 22 22 21 19 15 11 6 4 3 4 6 8 9 9 10 12 13 14 15 14 14 15 15 14 15 15 15 16 17
12 18 26 26 26 25 23 23 22 22 21 20 19 18 17 16 15 15 15 15 14 14 13 13 13 13 12 12 13 13 12 12 12 12 14 15 14 13 12 9 8 9 12 14 14 14 13 14 14 15 18 21 24 25 23 22 22 22 22 18 14 10 6 3 4 7 10 10 10 9 9 11 13 13 14 13 13 14 14 14 14 15 16 16 16
14 18 25 25 26 26 24 24 23 23 22 21 20 18 16 15 15 15 15 14 14 13 13 13 13 13 13 14 14 12 12 12 12 13 15 15 14 13 12 9 8 10 13 14 14 14 13 13 14 15 16 19 22 22 21 21 22 22 21 18 13 9 5 3 5 7 9 9 9 8 8 9 11 12 12 12 12 12 13 13 15 15 16 16 15
15 18 24 24 26 25 24 24 23 23 22 21 20 17 16 14 14 14 14 14 14 14 13 14 13 14 15 14 13 12 12 12 12 13 14 14 14 13 11 9 9 11 13 14 13 13 13 13 14 15 15 17 19 18 19 20 21 21 19 15 10 6 3 2 4 8 8 7 8 7 6 7 10 11 11 11 11 11 12 13 14 15 15 15 14
17 19 25 25 25 24 24 24 23 22 21 20 19 17 15 13 13 13 13 14 15 14 14 13 13 16 16 14 13 13 12 12 11 11 12 13 13 12 11 9 9 10 12 13 13 12 12 13 14 15 15 16 16 16 18 19 19 19 16 12 9 5 3 3 5 9 8 7 7 6 6 7 8 9 10 10 10 11 12 12 13 13 13 13 13
22 22 26 26 25 24 24 23 21 20 19 19 18 17 15 14 14 14 14 15 16 15 15 14 15 17 16 14 13 13 12 12 11 10 10 11 13 13 11 10 9 10 11 12 13 12 12 12 14 14 15 15 16 17 18 18 17 17 15 11 6 2 3 5 5 7 9 8 7 6 6 6 7 8 9 10 11 11 11 11 11 11 12 12 12
23 25 26 24 24 23 20 19 20 20 19 19 17 16 15 15 15 15 15 16 17 16 16 15 16 18 17 15 13 13 12 11 10 9 9 9 12 13 12 10 9 9 11 13 13 12 12 12 13 14 15 15 16 17 16 14 14 15 15 11 4 2 4 6 5 7 9 7 7 6 6 7 6 7 9 9 10 9 9 9 9 10 10 11 11
25 25 25 24 22 20 15 14 19 20 20 19 18 17 16 16 16 16 17 18 19 17 17 16 17 19 17 15 14 14 13 11 10 9 9 9 11 12 11 10 9 9 11 14 14 13 13 12 13 13 14 14 14 14 12 11 12 14 14 10 4 3 4 6 6 9 10 6 6 5 5 6 6 6 7 8 8 7 8 8 8 8 9 9 10
22 21 23 25 24 22 18 19 23 22 22 21 20 19 18 18 17 17 19 20 21 19 19 18 18 19 18 16 15 14 13 11 11 10 10 10 11 11 11 9 9 9 11 14 15 14 13 13 13 13 13 12 11 11 10 10 10 12 14 11 6 2 3 6 5 8 9 6 5 5 4 5 4 5 5 6 6 6 7 7 7 7 7 8 8
15 18 22 26 27 25 23 25 27 25 24 24 23 21 20 20 20 20 21 21 22 21 20 20 20 19 18 17 15 14 12 12 12 11 11 10 10 10 9 9 9 10 12 15 16 15 14 13 12 12 12 11 10 9 8 8 9 10 14 11 4 3 4 5 4 5 8 6 4 4 4 4 3 3 4 5 5 5 6 6 6 6 7 7 8
13 17 24 26 25 24 23 25 27 27 26 25 22 21 21 22 21 22 23 23 22 21 21 21 20 19 17 17 15 14 12 11 11 11 10 9 9 8 7 7 9 12 14 16 17 15 14 13 12 11 11 9 9 8 4 5 7 8 11 8 5 6 4 4 4 5 6 6 4 4 3 3 2 2 2 3 4 5 5 6 6 7 7 7 7
14 18 26 25 23 23 24 26 27 27 27 24 21 21 22 22 21 23 24 24 23 23 22 21 19 18 17 17 15 13 12 11 11 11 10 8 8 7 6 7 9 12 14 16 15 14 13 12 12 11 9 8 8 6 2 3 6 7 9 8 6 6 5 3 3 4 4 4 3 3 2 3 2 2 1 2 3 4 5 5 6 6 7 7 7
16 22 27 24 24 24 25 27 26 27 27 25 23 22 22 22 22 23 25 25 24 23 22 20 19 19 18 17 15 14 13 12 12 11 10 9 8 8 8 9 10 11 13 13 12 11 10 11 11 9 8 8 7 5 2 4 7 8 8 10 8 6 7 5 1 2 2 1 2 2 3 3 3 2 2 2 2 3 4 5 6 6 7 7 7
18 22 24 24 26 25 26 27 26 27 27 26 24 22 23 24 23 23 25 25 24 22 21 19 19 19 18 17 16 14 14 12 12 11 10 9 9 9 9 11 11 11 12 13 13 10 9 10 9 7 6 8 9 5 5 6 8 8 7 8 8 8 9 7 5 3 1 1 1 3 3 4 4 3 3 2 3 3 4 5 5 6 6 7 7
17 18 21 24 27 25 27 27 26 27 27 26 24 23 24 25 24 24 24 25 24 22 21 19 19 19 18 17 15 14 14 13 13 12 10 9 9 10 9 10 10 9 9 10 11 9 8 8 8 8 6 7 8 6 7 7 7 7 6 6 7 8 9 9 7 3 1 0 1 2 4 4 5 4 4 3 4 4 4 5 6 6 6 7 7
15 16 19 23 26 25 28 28 28 28 27 26 25 24 24 24 24 24 24 24 23 23 22 20 19 19 17 16 15 14 15 14 14 13 11 11 11 11 9 9 8 6 6 7 9 7 6 7 8 9 6 6 8 8 8 6 4 6 6 6 9 10 8 9 8 4 3 2 1 2 3 4 5 4 3 4 5 6 6 6 7 7 8 9 9
15 16 17 21 24 26 28 29 30 29 27 26 25 25 25 25 24 24 23 22 22 23 22 21 20 19 17 16 15 15 16 16 15 13 12 13 13 12 11 10 9 8 9 9 10 10 8 9 9 10 8 7 9 11 9 5 4 5 6 7 10 10 8 9 8 6 5 5 3 1 2 3 5 5 3 4 6 7 9 10 10 11 11 12 12
15 15 16 19 22 25 28 30 30 29 27 26 25 25 25 25 24 24 24 22 22 21 21 20 19 19 19 17 17 16 16 17 16 15 14 14 13 12 11 10 9 9 9 10 10 11 11 11 11 11 11 10 10 12 9 7 6 5 6 8 9 7 6 8 9 7 6 6 4 2 0 2 4 5 4 5 7 10 12 12 13 13 13 13 13
16 16 15 17 20 25 27 29 30 29 27 26 26 26 25 24 24 25 23 22 21 19 19 19 19 19 19 18 18 18 17 18 18 17 16 14 13 12 11 10 9 8 8 9 10 11 11 12 12 12 12 10 10 12 10 8 7 5 6 9 9 8 7 8 9 9 8 7 5 4 3 2 3 5 5 6 9 11 13 13 12 12 12 13 12
17 15 15 16 19 24 26 28 28 28 28 27 27 27 25 24 24 24 22 21 19 18 18 18 18 19 19 19 20 19 19 19 18 17 16 14 12 12 12 11 10 8 8 9 11 11 11 11 12 11 11 11 10 10 10 8 6 5 7 8 10 9 8 9 9 10 9 7 6 5 5 4 4 5 6 8 9 9 11 13 11 11 10 10 9
15 14 16 16 19 23 25 27 28 29 29 28 28 27 25 25 24 23 21 21 19 18 17 17 18 19 19 19 20 20 19 19 18 17 16 14 13 13 12 11 10 8 8 10 11 11 10 11 12 11 10 11 9 8 8 7 5 5 6 7 7 7 8 9 10 11 10 8 7 7 6 4 5 6 8 9 8 9 11 12 10 9 8 7 7
13 11 15 17 19 23 25 27 28 28 28 28 28 28 26 25 24 22 21 21 19 18 17 16 17 18 19 20 21 20 19 18 17 17 16 13 13 13 12 11 9 8 9 11 11 11 11 11 12 10 9 9 8 7 7 7 6 5 6 6 6 6 6 8 10 11 10 9 9 8 7 6 6 8 8 9 9 10 11 10 9 9 8 7 6
12 9 13 17 19 22 24 27 28 28 28 29 30 29 26 24 23 23 22 21 20 18 17 16 16 17 19 21 22 21 18 17 15 16 15 13 13 14 13 11 9 8 10 12 11 12 11 11 11 9 9 8 7 7 7 7 6 6 6 6 5 5 6 7 10 11 9 9 9 9 8 8 8 9 9 9 9 9 9 8 8 8 7 6 6
14 10 12 16 19 21 23 27 29 29 29 30 32 28 23 23 24 24 23 22 21 20 18 17 17 18 19 20 21 20 18 16 15 15 15 13 14 15 14 12 10 10 12 12 12 12 11 11 10 9 9 7 6 7 7 8 8 7 6 6 6 4 5 6 8 9 9 8 9 10 9 9 9 9 9 8 8 8 8 8 8 7 6 5 5
15 12 11 13 18 21 23 27 29 28 29 29 29 26 25 25 25 25 25 24 22 20 18 17 18 19 19 19 20 20 18 16 16 16 15 14 15 15 14 13 11 11 12 13 13 12 11 11 10 9 9 8 7 7 7 8 8 9 8 6 6 5 5 4 5 7 8 8 10 10 9 10 10 9 8 8 8 8 8 7 6 6 5 4 5
14 13 12 11 17 23 24 27 29 28 28 27 26 26 27 28 26 27 27 25 22 20 19 18 18 19 19 19 19 19 18 17 16 17 17 16 15 15 14 13 12 12 12 14 14 12 10 10 9 9 10 9 9 8 8 8 8 11 11 9 8 7 6 5 4 6 8 9 10 10 9 10 10 9 8 7 8 8 7 7 6 5 5 4 5
14 13 13 13 19 24 25 26 28 28 26 24 24 26 28 28 27 28 26 23 21 20 19 18 19 19 18 18 19 18 18 17 16 17 18 17 15 14 13 12 12 13 13 14 14 12 10 10 10 10 10 10 9 10 10 9 8 8 10 11 10 8 6 5 6 7 8 9 10 10 9 10 9 8 8 7 8 8 7 7 6 6 5 5 5
16 15 14 14 20 23 24 26 28 28 27 24 23 26 26 24 24 25 25 22 20 19 18 18 19 18 17 18 18 18 19 18 17 18 18 17 15 14 12 11 12 13 13 14 14 12 11 10 11 11 11 11 10 10 10 9 8 8 9 10 10 9 8 7 7 7 8 10 10 10 9 9 9 9 9 8 7 7 7 7 7 6 6 6 6
19 17 15 17 19 20 22 25 27 27 26 24 24 25 23 21 20 19 20 20 20 19 18 17 17 17 17 17 18 19 18 17 17 17 16 15 15 14 11 11 13 13 13 13 13 12 12 11 11 13 13 13 12 11 11 10 8 10 11 9 9 9 8 9 10 9 9 10 10 10 10 10 10 10 9 8 7 7 7 7 7 7 7 7 7
21 17 16 19 18 18 21 22 23 24 22 21 23 23 22 21 20 18 17 19 18 19 20 19 17 18 18 17 18 19 18 17 17 16 15 15 16 14 12 13 13 13 12 12 13 13 12 11 12 13 13 13 12 12 13 11 8 9 10 10 9 8 9 12 13 10 10 11 11 11 11 11 10 10 9 8 8 7 7 7 7 7 8 7 8
21 16 15 18 17 17 19 20 21 22 19 19 20 21 22 21 20 18 19 20 19 19 19 19 19 19 18 17 17 18 17 16 16 16 17 16 15 14 14 13 12 12 12 11 13 12 11 12 12 13 13 13 11 12 14 14 11 9 9 9 7 7 10 15 14 12 12 12 11 11 11 11 11 10 10 9 8 7 7 6 6 7 8 8 8
21 17 16 17 16 16 19 19 20 21 20 20 19 19 21 21 19 18 18 21 20 18 18 19 20 19 18 17 16 16 16 15 16 17 16 14 13 14 14 13 12 12 12 12 13 12 11 12 13 14 14 13 12 12 13 14 14 12 10 8 6 6 9 12 13 14 15 13 11 11 12 12 13 12 11 9 7 7 7 7 7 7 7 8 8
22 20 19 18 17 18 20 20 20 21 20 19 17 17 18 17 16 14 14 19 20 17 18 21 21 19 18 16 15 14 15 15 15 15 13 12 13 14 13 13 12 12 12 13 13 12 12 12 13 15 15 13 12 12 12 13 14 14 13 10 6 7 8 8 9 12 16 18 14 12 13 13 13 13 12 10 8 8 9 9 8 8 8 8 8
21 20 20 19 18 20 22 22 22 22 20 17 15 16 15 13 11 11 13 19 19 17 18 21 22 21 19 18 16 15 15 14 14 13 12 12 14 14 13 13 13 12 13 13 12 12 12 12 14 15 14 13 12 12 12 12 12 13 14 12 9 9 10 9 9 9 12 17 16 14 15 14 13 12 12 11 10 10 10 9 7 7 8 7 6
20 19 19 19 18 20 23 24 24 23 20 17 17 17 15 14 14 13 15 19 19 19 20 22 23 22 21 20 18 16 16 15 15 15 14 14 14 14 14 14 13 12 13 14 12 12 12 12 13 13 13 13 13 13 11 10 11 13 14 13 12 12 13 13 13 12 12 12 14 16 17 16 15 15 15 14 13 11 9 8 7 6 6 6 5
19 18 18 19 20 20 22 23 23 23 20 17 17 16 15 18 18 15 16 19 20 21 21 23 24 23 22 21 19 17 17 17 17 17 16 15 14 14 14 13 13 13 13 13 12 13 14 13 12 12 12 12 12 13 11 10 11 13 13 12 12 13 13 14 15 15 14 13 14 18 17 15 15 18 19 17 13 11 9 9 8 5 3 4 2
Wind_Direction
169 166 168 162 159 151 147 145 145 147 147 146 141 139 136 131 126 122 121 122 123 124 129 133 138 138 136 136 135 134 132 130 125 122 119 117 114 111 105 98 95 92 89 87 87 88 89 94 101 104 106 104 101 100 100 102 103 102 97 95 95 94 97 98 98 95 95 95 96 95 93 94 95 93 92 92 90 90 90 89 89 88 85 84 83
167 167 169 162 161 152 148 146 147 149 148 147 143 141 138 133 129 126 124 124 126 126 128 131 136 139 138 137 138 136 134 131 126 123 121 119 117 113 107 101 99 95 91 89 89 90 91 95 100 103 105 106 105 105 103 105 107 103 96 91 88 88 90 91 92 93 94 97 97 97 97 97 96 94 94 93 92 92 92 90 88 87 86 85 84
168 167 168 162 161 154 149 147 147 149 149 148 145 144 141 136 133 130 127 127 128 127 129 128 131 137 140 139 139 139 137 133 127 125 125 123 120 115 110 105 102 98 94 91 90 91 92 95 100 102 102 103 106 108 106 107 108 102 95 90 84 83 84 84 85 88 93 98 99 99 98 97 95 95 95 94 93 92 90 89 86 86 88 88 87
174 168 166 162 160 155 149 147 148 150 149 148 147 147 144 141 137 134 131 130 131 129 128 127 126 132 140 141 140 142 139 135 131 129 128 127 123 118 115 111 107 103 100 96 94 94 93 94 98 101 101 102 106 108 108 107 104 98 93 86 82 81 81 81 80 82 86 93 100 102 100 97 95 94 93 93 91 90 90 90 90 91 93 94 94
175 170 167 161 158 155 149 147 148 149 149 150 150 150 148 145 142 139 137 134 134 132 128 127 126 128 136 141 141 142 141 138 135 133 132 131 128 125 122 117 111 109 106 101 97 96 95 95 97 101 103 104 106 108 108 105 99 94 89 83 80 79 79 76 73 74 78 83 92 101 104 100 95 92 91 92 93 95 95 96 98 97 97 96 97
173 170 170 163 157 153 149 147 147 148 150 151 152 153 152 149 146 144 143 139 138 135 131 129 128 127 131 137 140 142 141 138 136 137 137 135 133 131 129 121 115 114 110 102 97 96 97 98 100 103 106 107 108 109 107 102 97 92 88 83 80 78 75 71 68 67 69 75 81 91 104 105 100 93 89 93 97 97 95 89 83 84 89 92 97
175 172 172 165 157 152 148 146 147 149 150 153 155 156 154 152 151 149 149 145 143 140 137 134 130 128 130 135 137 139 140 136 134 140 143 141 139 138 136 127 119 117 111 104 99 97 98 100 103 105 108 110 111 111 108 102 97 93 87 82 79 77 74 68 64 62 63 68 66 69 90 106 103 93 90 91 90 85 80 70 63 68 76 92 97
175 174 173 166 156 150 147 146 147 150 152 155 157 158 157 156 155 153 154 151 150 146 143 139 134 130 130 135 135 136 139 137 134 139 147 146 145 144 140 134 127 121 113 108 103 100 99 103 106 108 111 113 114 113 110 104 99 93 87 82 78 76 73 66 65 67 70 75 62 49 65 100 98 91 88 78 77 74 68 61 61 66 75 94 92
175 174 169 163 155 149 146 146 147 150 154 157 159 161 159 159 159 157 158 156 156 152 149 145 138 134 132 135 136 134 136 139 137 137 144 146 149 148 143 140 134 125 118 113 108 105 104 107 111 114 115 116 118 116 112 107 102 95 90 85 81 78 73 70 76 81 89 100 71 46 62 82 90 83 81 75 72 64 62 69 73 77 87 96 90
176 172 164 159 152 147 145 145 147 151 155 157 161 162 162 162 162 161 160 161 162 157 153 149 141 138 136 137 138 137 137 141 142 140 145 146 151 151 144 144 141 130 123 118 112 109 109 111 116 118 118 119 121 120 115 111 107 99 95 91 87 84 83 90 102 99 110 134 137 44 58 52 59 79 82 81 71 63 71 80 80 82 86 87 86
176 167 158 155 148 145 145 146 148 150 153 157 161 163 163 163 164 163 163 165 166 161 157 152 145 143 142 144 145 146 145 146 146 141 148 150 151 151 144 145 144 133 127 123 117 114 114 114 117 121 123 122 123 123 119 116 111 105 101 96 91 91 97 107 111 110 126 150 177 324 23 19 44 84 85 83 77 78 82 79 75 77 81 81 84
170 161 153 153 147 145 145 146 146 147 150 155 159 161 161 162 165 165 165 168 169 166 162 157 152 151 150 153 154 154 155 152 150 140 143 148 150 150 142 143 143 135 133 129 122 118 118 118 118 122 127 127 126 125 122 118 112 108 104 99 100 105 112 117 117 122 142 174 209 260 318 354 66 94 90 89 89 88 84 77 72 76 82 81 82
158 156 153 152 147 146 146 144 143 143 147 152 154 155 158 161 165 167 167 170 173 172 167 163 161 159 159 162 162 160 161 157 155 144 135 139 144 143 138 140 140 138 137 130 124 122 121 121 119 120 128 132 130 127 122 117 111 108 104 101 104 109 117 123 125 126 144 195 217 249 281 355 95 96 92 93 93 90 85 79 74 76 82 82 82
147 151 154 153 148 146 145 142 141 142 143 146 148 149 155 159 163 167 169 172 175 177 172 169 168 168 168 169 169 166 163 159 159 148 133 136 139 137 138 141 141 142 140 132 129 127 125 122 119 119 126 135 134 127 120 114 110 107 104 103 103 108 117 121 120 110 337 204 213 220 188 115 99 95 93 92 90 87 84 80 75 75 79 83 85
140 146 156 156 148 144 142 140 139 139 139 139 142 144 149 154 159 164 167 172 175 178 176 173 172 173 173 172 170 164 161 160 158 148 139 139 140 138 139 147 147 143 141 139 135 130 127 123 121 121 125 133 132 124 118 114 111 108 106 104 103 110 114 108 103 327 1 73 95 119 120 108 100 96 93 90 89 86 83 80 77 76 77 80 83
141 145 159 157 146 141 142 140 138 137 135 136 138 140 144 148 154 160 166 173 175 177 177 174 173 173 172 169 163 156 158 159 153 147 144 143 143 143 141 150 151 145 146 144 139 133 129 124 121 122 125 130 128 122 119 116 111 106 102 100 105 114 117 111 83 28 56 70 77 95 106 103 99 96 93 91 91 89 86 83 80 79 78 77 80
145 150 160 155 145 142 142 142 140 138 137 138 139 139 142 146 151 159 167 173 174 175 177 174 172 169 164 161 158 153 154 155 151 147 146 146 148 148 151 156 152 152 153 147 142 136 131 125 120 119 125 130 128 124 121 116 112 107 100 97 106 120 124 101 52 44 57 61 64 77 92 97 97 96 95 92 90 89 88 87 85 84 82 80 82
151 155 160 155 146 143 144 144 144 144 145 144 143 144 144 147 152 161 168 170 171 174 175 174 171 166 160 157 159 155 149 149 149 148 148 152 154 155 161 161 151 157 158 150 145 139 133 127 119 114 120 131 131 126 122 118 115 112 105 100 104 119 118 72 29 30 41 48 53 61 79 93 95 96 96 93 89 88 90 90 89 88 87 86 86
158 159 161 157 149 148 149 150 151 151 151 147 144 145 146 148 153 161 167 170 173 174 174 173 172 166 159 157 161 157 149 148 149 149 154 160 162 165 169 164 151 160 162 153 149 143 137 129 120 112 113 129 135 130 125 122 120 117 111 108 111 115 99 54 19 17 21 31 42 54 72 89 93 93 95 95 93 92 94 95 94 92 91 91 90
154 157 162 162 158 157 156 156 156 154 150 145 142 141 143 148 152 159 164 171 176 175 174 174 171 163 160 160 163 162 157 155 153 153 158 166 172 175 177 168 154 163 167 158 154 147 141 134 124 115 108 119 133 136 131 125 120 115 109 108 114 118 79 20 6 15 24 32 38 52 68 85 94 94 95 95 94 95 97 98 97 96 95 95 94
138 151 164 167 163 162 159 158 156 154 151 143 141 138 140 148 155 161 165 172 175 175 174 173 171 164 164 168 168 168 166 161 157 158 161 169 178 181 181 174 162 167 173 165 159 151 146 141 129 120 112 111 121 130 130 123 116 112 106 103 106 116 50 8 356 16 32 41 42 54 65 75 89 94 98 97 96 97 98 100 99 99 98 96 94
138 148 161 163 159 159 158 161 161 159 156 149 148 144 145 152 158 164 168 172 174 175 174 172 172 169 171 174 173 173 172 166 162 164 164 168 178 182 183 178 171 171 175 171 163 156 150 146 137 127 122 118 120 126 126 117 113 113 106 102 93 18 18 359 355 16 22 38 49 60 69 69 77 84 92 96 98 101 101 101 100 98 96 95 93
141 148 159 159 159 158 155 173 179 173 166 160 160 159 156 157 161 166 169 171 174 176 174 174 175 175 179 179 177 177 176 171 168 169 168 170 176 181 185 183 181 176 175 173 168 161 154 151 145 135 132 130 130 130 126 119 117 117 109 104 96 27 359 336 354 12 11 28 51 61 74 73 77 79 85 94 98 103 103 101 99 97 97 95 93
138 150 161 166 173 172 167 180 187 187 181 172 170 169 164 161 165 168 170 173 175 177 175 175 178 182 186 184 182 180 177 173 171 173 174 177 178 180 182 183 188 183 175 175 173 166 159 155 149 143 141 136 138 138 130 125 116 119 118 110 105 77 295 302 344 7 8 22 46 58 73 74 80 83 86 94 96 100 99 99 98 98 97 94 93
148 161 169 172 178 183 183 183 185 189 187 179 175 173 170 168 168 170 174 177 178 178 177 179 183 188 189 186 187 184 181 178 175 175 175 181 183 181 179 179 190 189 179 176 175 171 166 161 153 150 147 140 143 142 136 135 118 127 132 119 137 184 241 280 318 350 2 13 34 47 60 70 80 92 96 98 97 97 93 92 91 90 90 90 89
161 175 180 174 174 185 191 189 189 190 188 181 176 174 175 173 172 173 176 180 181 180 180 185 188 190 190 187 189 188 188 184 178 177 175 178 181 178 177 180 191 192 182 176 177 176 173 166 159 158 156 155 154 140 133 147 130 145 147 133 184 203 220 270 288 313 346 356 17 36 45 65 79 106 113 111 102 96 89 86 86 85 84 85 86
163 174 180 176 177 186 189 189 191 190 187 182 179 178 178 178 176 176 178 180 183 183 184 190 191 191 192 191 192 193 192 186 182 183 176 172 174 168 167 170 180 183 177 175 178 178 177 172 166 167 171 173 163 138 120 170 161 171 162 144 162 203 228 246 285 316 344 345 7 40 54 70 82 101 127 130 108 99 94 88 84 81 81 84 86
167 173 178 179 180 185 187 188 190 190 188 184 183 182 181 180 179 177 179 181 183 185 186 190 192 191 194 195 196 195 194 190 186 187 176 171 169 157 155 154 154 162 164 164 162 161 168 171 168 170 177 170 158 147 157 198 192 189 173 160 162 194 227 237 256 341 346 316 3 50 77 78 80 88 114 141 119 108 100 93 87 85 85 87 87
172 175 180 180 180 185 189 188 189 191 189 186 183 184 183 180 179 177 177 182 185 187 187 190 192 191 193 195 195 193 194 194 192 190 178 173 164 147 148 147 138 141 151 152 139 135 152 159 153 145 150 152 151 167 209 220 212 205 186 181 196 202 212 234 238 242 265 247 5 35 53 59 64 68 79 110 130 126 111 100 94 95 94 93 93
176 178 181 180 180 186 189 189 190 191 190 186 183 185 184 180 180 178 177 182 186 188 188 191 193 192 193 193 191 191 195 198 196 193 182 174 159 141 136 138 135 130 144 149 135 137 151 146 133 123 126 142 150 184 218 226 222 220 204 190 212 201 203 240 247 241 286 294 2 26 41 45 50 56 69 95 125 132 122 115 107 106 106 103 101
182 183 182 182 182 185 189 190 190 192 192 186 184 185 184 182 182 181 180 182 185 188 190 191 193 194 196 194 192 192 196 198 197 194 184 169 150 140 134 138 146 148 160 160 149 162 163 148 146 145 154 163 169 203 225 234 232 222 210 191 203 205 221 251 250 249 277 267 286 18 44 49 49 52 72 98 119 130 127 125 120 117 113 107 102
194 191 186 185 186 186 188 191 192 194 194 188 186 187 184 183 183 184 185 186 187 188 190 192 193 196 198 197 192 190 193 198 195 189 180 167 150 146 150 155 169 181 181 168 161 173 166 162 171 167 180 187 192 211 221 232 239 223 203 188 197 210 226 236 235 241 254 255 257 317 23 47 50 50 75 109 123 131 129 125 123 120 114 109 103
203 199 193 190 190 189 189 192 193 195 194 189 187 189 186 185 186 188 189 191 191 188 190 192 194 195 198 197 190 188 192 194 190 183 177 170 159 157 162 171 184 190 181 164 163 169 160 164 177 178 187 192 200 210 214 222 232 227 205 194 199 207 206 207 215 219 231 245 244 240 78 73 66 63 81 125 135 136 132 127 123 118 113 109 104
213 202 192 193 191 191 193 193 194 194 192 187 188 190 188 189 191 192 192 193 191 189 189 191 194 195 197 196 190 189 191 189 187 183 179 177 173 171 173 185 195 195 184 171 170 172 165 170 179 181 189 192 196 207 216 223 226 229 216 208 213 221 214 206 206 209 222 229 214 206 186 132 98 89 97 128 143 142 135 126 119 114 110 107 104
223 207 192 192 190 194 196 195 195 193 190 187 189 190 189 193 195 194 194 192 191 192 190 189 195 194 195 195 191 191 190 188 188 187 186 183 181 180 178 187 193 189 182 178 177 178 174 179 186 186 190 192 193 207 219 223 226 220 210 211 217 222 215 207 207 207 212 213 206 198 182 163 127 108 105 125 142 142 133 127 123 119 116 110 107
225 214 200 195 194 199 197 196 195 192 191 190 191 189 190 197 197 194 192 188 190 193 192 191 191 192 195 194 190 192 191 191 193 190 189 185 183 184 181 183 189 187 182 183 184 183 176 182 194 192 190 194 193 205 215 218 221 198 195 209 209 206 196 192 199 200 198 201 204 190 180 182 153 123 110 123 139 137 132 133 132 130 128 124 122
226 216 204 201 200 202 199 196 193 192 194 193 192 188 189 195 195 191 189 187 188 190 193 192 187 187 189 187 188 192 194 196 196 192 192 187 186 191 188 182 186 194 194 193 190 185 178 181 196 194 190 196 193 198 206 208 204 172 173 190 188 189 185 184 191 193 191 194 199 192 190 189 161 136 121 125 133 131 131 134 133 133 133 129 130
223 213 202 202 202 204 201 195 192 195 197 195 192 186 187 191 189 187 186 185 184 186 191 189 183 182 182 183 186 192 195 195 195 193 194 192 192 197 193 180 184 199 198 194 189 186 183 185 198 202 197 197 191 196 196 190 178 154 163 175 179 188 176 178 187 187 185 190 198 197 190 179 160 142 133 133 134 131 130 133 136 135 134 134 132
216 207 197 200 202 204 202 198 195 197 199 196 188 182 184 188 184 185 184 182 182 184 189 186 180 179 181 182 186 192 195 195 198 198 196 198 199 199 191 179 185 198 192 189 189 188 187 189 196 202 199 189 186 194 182 172 159 142 163 167 158 171 168 175 185 185 189 195 201 199 184 173 163 149 143 142 141 139 136 136 138 134 133 137 133
210 202 196 200 201 203 202 200 199 199 201 197 185 178 182 183 182 184 182 180 183 186 186 184 181 179 181 184 188 193 194 194 198 200 200 201 202 197 185 178 186 195 192 190 192 193 192 194 198 199 195 181 180 192 179 173 159 140 154 167 158 154 152 167 180 181 188 191 195 194 179 170 167 157 152 151 146 144 143 141 136 130 133 137 136
206 207 209 205 198 199 202 201 201 202 205 198 185 180 181 182 184 187 184 179 182 185 183 182 181 180 183 185 187 190 190 193 196 199 202 202 203 197 182 179 189 195 195 194 195 196 196 198 201 200 195 185 181 187 182 180 168 148 150 158 161 157 149 156 175 181 181 179 185 188 177 169 168 166 165 160 153 151 148 145 138 135 140 139 136
205 216 222 208 192 195 201 204 202 203 207 203 190 182 182 183 185 185 180 176 180 184 180 179 179 179 182 185 185 186 189 193 194 197 200 199 200 194 180 182 194 196 196 199 199 199 200 201 204 200 192 189 186 184 183 180 181 176 164 156 158 160 156 158 164 173 174 174 183 185 175 168 167 170 173 165 161 159 150 144 141 136 137 140 137
210 221 224 202 188 189 196 203 203 203 206 205 194 184 183 186 188 184 177 175 182 184 177 176 179 179 183 186 186 187 189 192 196 196 197 198 196 189 185 195 205 201 197 202 204 201 202 199 200 199 189 185 184 179 182 183 183 185 173 163 164 158 151 154 157 165 174 174 178 179 173 170 167 165 167 169 171 169 158 152 147 133 127 137 136
211 217 212 192 186 185 191 201 204 205 204 201 194 183 180 186 188 187 185 182 182 181 176 176 181 182 184 186 185 185 186 190 196 195 197 202 196 191 197 206 209 205 200 204 207 203 201 193 190 196 193 187 185 180 179 185 185 181 173 162 164 165 158 157 154 157 170 173 172 171 169 170 166 159 162 171 172 174 168 158 152 142 134 135 131
214 212 202 193 189 186 193 200 202 205 203 198 193 181 178 185 183 183 192 190 184 181 176 176 185 186 186 186 183 182 183 188 194 195 202 207 199 197 208 210 207 205 202 204 207 205 204 199 191 195 196 190 192 188 182 183 185 189 186 169 166 183 177 160 151 149 164 170 166 164 166 168 165 159 165 174 172 173 173 161 154 150 147 139 129
210 206 203 198 193 190 194 194 195 200 198 196 194 180 177 185 183 181 191 194 189 182 179 183 189 188 187 184 180 181 184 189 193 197 206 207 199 202 210 206 201 201 202 202 203 202 203 200 194 194 194 188 190 193 187 184 185 192 200 193 191 201 184 165 153 147 156 166 164 161 165 168 164 159 162 170 170 169 167 156 150 151 149 137 127
207 210 214 204 195 189 185 184 189 194 193 196 196 183 178 184 185 184 191 198 192 181 182 188 190 190 189 183 179 183 188 190 193 198 201 199 196 201 203 196 193 196 198 198 197 194 194 191 187 190 194 188 186 193 192 187 188 191 194 198 195 186 183 175 165 156 156 163 168 162 166 172 169 163 160 163 167 160 144 135 140 148 147 140 137
209 217 218 208 201 191 179 177 186 191 193 194 194 185 178 179 181 183 198 205 197 186 185 185 188 194 192 187 186 186 189 190 190 193 192 190 194 198 196 188 186 191 193 192 190 186 184 183 183 187 190 190 190 193 194 191 191 191 190 195 189 171 176 180 178 173 163 161 165 167 168 170 169 167 161 155 157 146 129 129 142 149 152 156 159
210 217 217 209 203 193 181 177 184 191 192 190 190 187 183 186 189 189 203 206 198 190 186 183 186 193 191 189 187 183 188 189 184 186 188 189 191 193 194 187 182 185 186 185 184 183 184 184 186 187 184 187 192 191 191 194 195 195 194 196 192 180 176 169 175 186 172 163 166 171 171 168 169 170 157 143 145 144 135 143 160 165 163 161 164
209 213 214 206 198 192 184 181 186 193 193 191 191 189 192 205 208 201 200 202 196 187 185 185 184 185 185 184 182 180 185 185 179 185 194 192 187 188 192 187 180 179 180 182 184 182 186 189 188 185 181 184 191 190 189 194 196 197 199 199 199 194 183 175 176 179 178 173 169 170 172 172 166 158 147 141 146 150 152 170 188 190 171 144 137
205 202 201 195 187 185 185 185 192 199 196 192 193 195 203 209 206 200 196 196 193 186 184 185 183 182 182 180 180 180 183 183 181 188 194 191 187 186 188 185 181 175 174 182 188 184 186 192 187 183 185 185 188 191 193 197 196 194 197 203 210 206 194 189 187 181 180 178 168 165 169 170 158 147 144 144 148 158 171 192 209 216 179 139 133